CCA57 ZYHB-ZULS

Flight info

Callsign CCA57
Flight time N/A
Altitude FL321
Route LEG09D LEGAG W204 RUSBO G212 BUMDU W47 ASAVA W45 VAGBI B215 EKETA/K0867S1040 B215 GODON W43 SAVPA W696 MENED W276 ANRUG W279 ONEBA G212 JTG W236 CTU B213 IGELA W522 IGDAG IGD10A
Aircraft A319/M-SDE2E3FGILRWXY/LB1D1

Departure

Time 2026-04-28 07:23
Airport Harbin Taiping International Airport (ZYHB)

Arrival

Time N/A
Airport Lhasa Gonggar International Airport (ZULS)
Time Latitude Longitude Altitude Speed Heading
2026-04-28 06:59 45.61851 126.23494 464 ft 0 kts 322°
2026-04-28 07:08 45.61841 126.23506 464 ft 4 kts 322°
2026-04-28 07:09 45.61819 126.23529 463 ft 4 kts 322°
2026-04-28 07:09 45.61798 126.23552 461 ft 3 kts 322°
2026-04-28 07:09 45.61781 126.23571 463 ft 4 kts 315°
2026-04-28 07:09 45.61769 126.23589 464 ft 0 kts 310°
2026-04-28 07:14 45.61770 126.23588 464 ft 0 kts 310°
2026-04-28 07:14 45.61769 126.23578 464 ft 1 kts 261°
2026-04-28 07:14 45.61760 126.23543 475 ft 7 kts 249°
2026-04-28 07:14 45.61709 126.23510 464 ft 9 kts 164°
2026-04-28 07:15 45.61651 126.23550 464 ft 10 kts 155°
2026-04-28 07:15 45.61590 126.23590 464 ft 10 kts 147°
2026-04-28 07:15 45.61543 126.23662 462 ft 10 kts 129°
2026-04-28 07:15 45.61483 126.23694 464 ft 10 kts 200°
2026-04-28 07:16 45.61428 126.23637 465 ft 10 kts 219°
2026-04-28 07:16 45.61376 126.23576 465 ft 10 kts 219°
2026-04-28 07:16 45.61361 126.23559 464 ft 0 kts 219°
2026-04-28 07:19 45.61359 126.23556 462 ft 2 kts 219°
2026-04-28 07:19 45.61327 126.23523 463 ft 7 kts 206°
2026-04-28 07:19 45.61278 126.23531 465 ft 8 kts 149°
2026-04-28 07:19 45.61261 126.23556 465 ft 0 kts 126°
2026-04-28 07:20 45.61261 126.23557 465 ft 0 kts 126°
2026-04-28 07:21 45.61258 126.23561 465 ft 1 kts 126°
2026-04-28 07:22 45.61252 126.23616 464 ft 5 kts 89°
2026-04-28 07:22 45.61255 126.23668 464 ft 6 kts 85°
2026-04-28 07:22 45.61269 126.23739 464 ft 10 kts 60°
2026-04-28 07:22 45.61379 126.23883 463 ft 44 kts 39°
2026-04-28 07:23 45.61786 126.24365 457 ft 106 kts 39°
2026-04-28 07:23 45.62495 126.25190 453 ft 155 kts 39°
2026-04-28 07:23 45.63362 126.26209 837 ft 161 kts 37°
2026-04-28 07:23 45.64270 126.27122 1445 ft 158 kts 17°
2026-04-28 07:24 45.65318 126.27111 1939 ft 153 kts 335°
2026-04-28 07:24 45.66265 126.26409 2485 ft 154 kts 329°
2026-04-28 07:24 45.67214 126.25698 3029 ft 155 kts 329°
2026-04-28 07:24 45.68171 126.24988 3580 ft 156 kts 329°
2026-04-28 07:25 45.69182 126.24244 3889 ft 174 kts 330°
2026-04-28 07:25 45.70324 126.23406 4127 ft 196 kts 330°
2026-04-28 07:25 45.71581 126.22486 4430 ft 216 kts 331°
2026-04-28 07:25 45.72976 126.21470 4896 ft 230 kts 331°
2026-04-28 07:26 45.74391 126.20377 5611 ft 233 kts 322°
2026-04-28 07:26 45.75398 126.18571 6193 ft 244 kts 294°
2026-04-28 07:26 45.75999 126.16230 6733 ft 255 kts 289°
2026-04-28 07:26 45.76558 126.13796 7430 ft 260 kts 288°
2026-04-28 07:27 45.77108 126.11337 8247 ft 262 kts 288°
2026-04-28 07:27 45.77668 126.08844 8955 ft 266 kts 288°
2026-04-28 07:27 45.78231 126.06351 9734 ft 268 kts 288°
2026-04-28 07:27 45.78709 126.03740 10433 ft 272 kts 278°
2026-04-28 07:28 45.78727 126.01018 11085 ft 278 kts 265°
2026-04-28 07:28 45.78383 125.98194 11331 ft 300 kts 262°
2026-04-28 07:28 45.78085 125.95930 11446 ft 316 kts 261°